7 * 24
多渠道服务支持
ONEWEB-0409是英国一网(OneWeb)星座的低轨宽带通信卫星,于北京时间2021年12月27日发射入轨。作为OneWeb第一代全球卫星互联网组网的组成部分,该卫星运行在近地轨道,旨在为全球提供高速宽带接入服务,尤其弥补偏远地区网络覆盖盲区,支撑天地一体化网络建设。目前OneWeb第一代星座已完成部署,基本具备全球服务能力,ONEWEB-0409也承担着全球卫星互联网通信组网的关键任务。
英国
(GB)
| 数据来源 | 国际轨道数据 |
| 星历时间: | 2026-09-15T22:08:01+0800 8小时前 查看轨道信息 |
| 半长轴: | 7595.82km |
| 偏心率: | 0.0001743 |
| 轨道倾角: | 87.897° |
| 近地点辐角 | 110.314° |
| 升交点赤经 | 3.087° |
| 平近点角 | 249.818° |
| 近地点: | 1216.359km |
| 远地点: | 1219.007km |
| 周期: | 109.805分钟 |
| 每日圈数: | 13.114171 |